When you browse on this site, cookies collect data to enhance your experience and personalize the content and advertising you see.
Visit our Privacy Policy to learn more. By continuing to use the site, you agree to this use of cookies and data.
  • In Netherlands
  • List of Countries
  • For 7 days
  • Water Temperature
  • Weather Map
  • Weather Widgets
  • user-avatar
    Login

    Hourly Weather Piskarki

    Today, 22 September, Sunday

    Time Temperature Precipitation Wind Pressure Humidity
    00:00 +10°C° 0 mm 2 mps 757 mmHg 94%
    01:00 +11°C° 0 mm 1 mps 757 mmHg 94%
    02:00 +10°C° 0 mm 1 mps 757 mmHg 94%
    03:00 +9°C° 0 mm 2 mps 756 mmHg 94%
    04:00 +9°C° 0 mm 2 mps 756 mmHg 94%
    05:00 +9°C° 0 mm 2 mps 756 mmHg 92%
    06:00 +10°C° 0 mm 2 mps 756 mmHg 90%
    07:00 +10°C° 0 mm 2 mps 756 mmHg 89%
    08:00 +14°C° 0 mm 2 mps 756 mmHg 80%
    09:00 +16°C° 0 mm 2 mps 756 mmHg 71%
    10:00 +18°C° 0 mm 2 mps 756 mmHg 62%
    11:00 +19°C° 0 mm 2 mps 755 mmHg 57%
    12:00 +21°C° 0 mm 2 mps 755 mmHg 51%
    13:00 +23°C° 0 mm 2 mps 755 mmHg 46%
    14:00 +23°C° 0 mm 2 mps 754 mmHg 46%
    15:00 +23°C° 0 mm 1 mps 754 mmHg 46%
    16:00 +23°C° 0 mm 1 mps 754 mmHg 47%
    17:00 +21°C° 0 mm 1 mps 754 mmHg 54%
    18:00 +19°C° 0 mm 1 mps 754 mmHg 61%
    19:00 +16°C° 0 mm 1 mps 754 mmHg 67%
    20:00 +15°C° 0 mm 1 mps 754 mmHg 73%
    21:00 +14°C° 0 mm 1 mps 754 mmHg 78%
    22:00 +13°C° 0 mm 2 mps 754 mmHg 84%
    23:00 +13°C° 0 mm 2 mps 754 mmHg 85%

    Tomorrow, 23 September, Monday

    Time Temperature Precipitation Wind Pressure Humidity
    00:00 +12°C° 0 mm 2 mps 754 mmHg 86%
    01:00 +12°C° 0 mm 2 mps 755 mmHg 88%
    02:00 +12°C° 0 mm 2 mps 754 mmHg 90%
    03:00 +10°C° 0 mm 2 mps 754 mmHg 92%
    04:00 +10°C° 0 mm 3 mps 754 mmHg 93%
    05:00 +10°C° 0 mm 3 mps 754 mmHg 93%
    06:00 +11°C° 0 mm 3 mps 755 mmHg 92%
    07:00 +11°C° 0 mm 4 mps 755 mmHg 92%
    08:00 +12°C° 0 mm 3 mps 755 mmHg 84%
    09:00 +14°C° 0 mm 3 mps 755 mmHg 76%
    10:00 +16°C° 0 mm 3 mps 755 mmHg 68%
    11:00 +18°C° 0 mm 3 mps 755 mmHg 64%
    12:00 +19°C° 0 mm 4 mps 755 mmHg 60%
    13:00 +20°C° 0 mm 4 mps 754 mmHg 55%
    14:00 +20°C° 0 mm 4 mps 754 mmHg 57%
    15:00 +20°C° 0 mm 4 mps 754 mmHg 58%
    16:00 +20°C° 0 mm 3 mps 754 mmHg 59%
    17:00 +18°C° 0 mm 3 mps 754 mmHg 66%
    18:00 +16°C° 0 mm 3 mps 754 mmHg 72%
    19:00 +13°C° 0 mm 3 mps 754 mmHg 79%
    20:00 +12°C° 0 mm 3 mps 754 mmHg 80%
    21:00 +12°C° 0 mm 3 mps 754 mmHg 81%
    22:00 +11°C° 0 mm 3 mps 755 mmHg 82%
    23:00 +10°C° 0 mm 3 mps 754 mmHg 83%

    Day after tomorrow, 24 September, Tuesday

    Time Temperature Precipitation Wind Pressure Humidity
    00:00 +10°C° 0 mm 2 mps 754 mmHg 85%
    01:00 +9°C° 0 mm 2 mps 754 mmHg 86%
    02:00 +9°C° 0 mm 2 mps 754 mmHg 88%
    03:00 +9°C° 0 mm 2 mps 754 mmHg 90%
    04:00 +8°C° 0 mm 2 mps 753 mmHg 92%
    05:00 +9°C° 0 mm 2 mps 753 mmHg 91%
    06:00 +9°C° 0 mm 3 mps 753 mmHg 89%
    07:00 +10°C° 0 mm 3 mps 753 mmHg 87%
    08:00 +12°C° 0 mm 3 mps 753 mmHg 80%
    09:00 +14°C° 0 mm 3 mps 752 mmHg 72%
    10:00 +17°C° 0 mm 3 mps 752 mmHg 64%
    11:00 +19°C° 0 mm 3 mps 752 mmHg 60%
    12:00 +20°C° 0 mm 3 mps 751 mmHg 55%
    13:00 +21°C° 0 mm 4 mps 751 mmHg 51%
    14:00 +21°C° 0 mm 3 mps 751 mmHg 54%
    15:00 +20°C° 0 mm 3 mps 750 mmHg 57%
    16:00 +20°C° 0 mm 2 mps 750 mmHg 60%
    17:00 +19°C° 0.1 mm 2 mps 750 mmHg 64%
    18:00 +19°C° 0.1 mm 1 mps 749 mmHg 69%
    19:00 +16°C° 0.1 mm 1 mps 749 mmHg 74%
    20:00 +16°C° 0.1 mm 1 mps 749 mmHg 76%
    21:00 +15°C° 0.1 mm 1 mps 749 mmHg 78%
    22:00 +15°C° 0.1 mm 1 mps 749 mmHg 80%
    23:00 +15°C° 0 mm 1 mps 748 mmHg 80%

    25 September, Wednesday

    Time Temperature Precipitation Wind Pressure Humidity
    00:00 +15°C° 0 mm 2 mps 748 mmHg 80%
    01:00 +15°C° 0 mm 2 mps 748 mmHg 80%
    02:00 +15°C° 0 mm 2 mps 747 mmHg 81%
    03:00 +14°C° 0 mm 2 mps 747 mmHg 83%
    04:00 +14°C° 0 mm 2 mps 747 mmHg 85%
    05:00 +14°C° 0 mm 2 mps 747 mmHg 86%
    06:00 +15°C° 0 mm 2 mps 747 mmHg 87%
    07:00 +15°C° 0 mm 2 mps 746 mmHg 88%
    08:00 +16°C° 0.1 mm 2 mps 746 mmHg 82%
    09:00 +17°C° 0.1 mm 2 mps 747 mmHg 77%
    10:00 +18°C° 0.1 mm 2 mps 747 mmHg 71%
    11:00 +19°C° 0.1 mm 3 mps 746 mmHg 66%
    12:00 +20°C° 0.1 mm 4 mps 746 mmHg 61%
    13:00 +20°C° 0.1 mm 4 mps 746 mmHg 57%
    14:00 +19°C° 0.1 mm 4 mps 746 mmHg 60%
    15:00 +19°C° 0.1 mm 3 mps 746 mmHg 64%
    16:00 +18°C° 0.1 mm 2 mps 745 mmHg 68%
    17:00 +17°C° 0.3 mm 2 mps 746 mmHg 74%
    18:00 +16°C° 0.3 mm 2 mps 746 mmHg 80%
    19:00 +15°C° 0.3 mm 2 mps 746 mmHg 85%
    20:00 +15°C° 1 mm 2 mps 746 mmHg 88%
    21:00 +14°C° 1 mm 3 mps 746 mmHg 90%
    22:00 +14°C° 1 mm 3 mps 746 mmHg 92%
    23:00 +14°C° 0.4 mm 3 mps 746 mmHg 92%

    26 September, Thursday

    Time Temperature Precipitation Wind Pressure Humidity
    00:00 +13°C° 0.4 mm 4 mps 746 mmHg 91%
    01:00 +13°C° 0.4 mm 4 mps 746 mmHg 91%
    02:00 +13°C° 0.1 mm 4 mps 747 mmHg 91%
    03:00 +13°C° 0.1 mm 4 mps 747 mmHg 91%
    04:00 +13°C° 0.1 mm 4 mps 747 mmHg 91%
    05:00 +13°C° 0.1 mm 4 mps 747 mmHg 91%
    06:00 +13°C° 0.1 mm 4 mps 747 mmHg 90%
    07:00 +13°C° 0.1 mm 4 mps 748 mmHg 90%
    08:00 +14°C° 0 mm 4 mps 748 mmHg 85%
    09:00 +15°C° 0 mm 4 mps 749 mmHg 80%
    10:00 +17°C° 0 mm 4 mps 749 mmHg 75%
    11:00 +16°C° 0.4 mm 5 mps 749 mmHg 73%
    12:00 +16°C° 0.4 mm 5 mps 749 mmHg 72%
    13:00 +17°C° 0.4 mm 5 mps 749 mmHg 70%
    14:00 +17°C° 0.5 mm 4 mps 749 mmHg 74%
    15:00 +16°C° 0.5 mm 3 mps 750 mmHg 77%
    16:00 +16°C° 0.5 mm 2 mps 750 mmHg 81%
    17:00 +15°C° 0.1 mm 2 mps 750 mmHg 84%
    18:00 +14°C° 0.1 mm 2 mps 750 mmHg 87%
    19:00 +13°C° 0.1 mm 2 mps 751 mmHg 91%
    20:00 +13°C° 0 mm 2 mps 751 mmHg 91%
    21:00 +12°C° 0 mm 2 mps 751 mmHg 91%
    22:00 +12°C° 0 mm 1 mps 752 mmHg 91%
    23:00 +12°C° 0 mm 2 mps 752 mmHg 91%

    27 September, Friday

    Time Temperature Precipitation Wind Pressure Humidity
    00:00 +12°C° 0 mm 2 mps 752 mmHg 91%
    01:00 +12°C° 0 mm 2 mps 752 mmHg 90%
    02:00 +10°C° 0 mm 2 mps 752 mmHg 90%
    03:00 +10°C° 0 mm 2 mps 752 mmHg 90%
    04:00 +10°C° 0 mm 3 mps 752 mmHg 89%
    05:00 +10°C° 0.4 mm 3 mps 752 mmHg 90%
    06:00 +10°C° 0.4 mm 3 mps 752 mmHg 91%
    07:00 +10°C° 0.4 mm 3 mps 752 mmHg 92%
    08:00 +10°C° 0.2 mm 3 mps 752 mmHg 92%
    09:00 +10°C° 0.2 mm 3 mps 752 mmHg 91%
    10:00 +11°C° 0.2 mm 3 mps 753 mmHg 90%
    11:00 +11°C° 0 mm 3 mps 752 mmHg 89%
    12:00 +12°C° 0 mm 3 mps 752 mmHg 87%
    13:00 +12°C° 0 mm 3 mps 752 mmHg 86%
    14:00 +13°C° 0 mm 3 mps 752 mmHg 85%
    15:00 +13°C° 0 mm 3 mps 752 mmHg 85%
    16:00 +13°C° 0 mm 3 mps 752 mmHg 85%
    17:00 +13°C° 0 mm 3 mps 752 mmHg 87%
    18:00 +12°C° 0 mm 3 mps 752 mmHg 89%
    19:00 +12°C° 0 mm 3 mps 752 mmHg 91%
    20:00 +12°C° 0 mm 4 mps 752 mmHg 92%
    21:00 +12°C° 0 mm 4 mps 751 mmHg 92%
    22:00 +12°C° 0 mm 4 mps 751 mmHg 92%
    23:00 +12°C° 0 mm 4 mps 751 mmHg 93%
    Show more